This demonstration page uses our WeatherBlox Daily Observations layout. Learn more.

40.92945, -100.16068

Hourly Observations for April 30, 2018

Temp ( °F °C ) Dew Point ( °F °C ) Humidity (%) Winds ( mph kmh ) Pressure ( in mb ) Visibility ( mi km ) Precip ( " mm )
12:15 am 00:15 Clear 69 20.7 44 6.5 40 40 S 31 50 29.59 1002 10 16.0934 0 0
12:35 am 00:35 Clear 69 20.5 44 6.7 41 41 S 30 48 29.59 1002 10 16.0934 0 0
12:55 am 00:55 Clear 69 20.5 44 6.9 41 41 S 31 50 29.65 1004 10 16.0934 0 0
1:15 am 01:15 Clear 69 20.3 45 7.1 43 43 S 26 43 29.65 1004 10 16.0934 0 0
1:35 am 01:35 Clear 68 19.8 45 7.3 44 44 S 25 41 29.65 1004 10 16.0934 0 0
1:55 am 01:55 Clear 67 19.7 46 7.6 46 46 S 24 39 29.65 1004 10 16.0934 0 0
2:15 am 02:15 Clear 66 19.1 46 8 49 49 S 26 43 29.62 1003 10 16.0934 0 0
2:35 am 02:35 Clear 66 19 47 8.1 49 49 S 23 37 29.62 1003 10 16.0934 0 0
2:55 am 02:55 Clear 65 18.6 47 8.3 51 51 S 24 39 29.62 1003 10 16.0934 0 0
3:15 am 03:15 Clear 65 18.3 47 8.4 53 53 S 21 33 29.62 1003 10 16.0934 0 0
3:35 am 03:35 Clear 64 18 47 8.5 54 54 S 21 33 29.62 1003 10 16.0934 0 0
3:55 am 03:55 Clear 64 17.9 47 8.5 54 54 S 22 35 29.62 1003 10 16.0934 0 0
4:15 am 04:15 Clear 64 17.9 47 8.6 55 55 S 23 37 29.62 1003 10 16.0934 0 0
4:35 am 04:35 Clear 64 17.8 47 8.5 55 55 S 23 37 29.62 1003 10 16.0934 0 0
4:55 am 04:55 Clear 64 17.8 47 8.4 54 54 S 24 39 29.62 1003 10 16.0934 0 0
5:15 am 05:15 Clear 64 17.7 47 8.3 54 54 S 23 37 29.62 1003 10 16.0934 0 0
5:35 am 05:35 Clear 64 17.5 47 8.2 55 55 S 22 35 29.62 1003 10 16.0934 0 0
5:55 am 05:55 Clear 64 17.7 46 8 53 53 S 23 37 29.62 1003 10 16.0934 0 0
6:15 am 06:15 Clear 64 17.5 46 8 54 54 S 24 39 29.59 1002 10 16.0934 0 0
6:35 am 06:35 Clear 64 17.5 46 7.8 53 53 S 26 43 29.59 1002 10 16.0934 0 0
6:55 am 06:55 Sunny 63 17.1 46 7.7 54 54 S 24 39 29.59 1002 10 16.0934 0 0
7:15 am 07:15 Sunny 62 16.8 46 7.7 55 55 S 23 37 29.65 1004 10 16.0934 0 0
7:35 am 07:35 Sunny 63 17 46 7.8 55 55 S 23 37 29.62 1003 10 16.0934 0 0
7:55 am 07:55 Sunny 63 17.4 46 8 54 54 S 25 41 29.62 1003 10 16.0934 0 0
8:15 am 08:15 Sunny 64 18 47 8.1 53 53 S 26 43 29.62 1003 10 16.0934 0 0
8:35 am 08:35 Sunny 65 18.4 46 8 51 51 S 30 48 29.62 1003 10 16.0934 0 0
8:55 am 08:55 Sunny 65 18.5 46 7.9 50 50 S 28 44 29.62 1003 10 16.0934 0 0
9:15 am 09:15 Sunny 67 19.3 46 8 48 48 S 24 39 29.62 1003 10 16.0934 0 0
9:35 am 09:35 Sunny 69 20.3 47 8.1 46 46 S 29 46 29.59 1002 10 16.0934 0 0
9:55 am 09:55 Sunny 70 21.3 47 8.1 43 43 S 28 44 29.59 1002 10 16.0934 0 0
10:15 am 10:15 Sunny 72 22 47 8.1 41 41 S 32 52 29.56 1001 10 16.0934 0 0
10:35 am 10:35 Sunny 73 22.6 47 8.1 40 40 S 36 57 29.56 1001 10 16.0934 0 0
10:55 am 10:55 Sunny 74 23.3 47 8.1 38 38 S 32 52 29.56 1001 10 16.0934 0 0
11:15 am 11:15 Sunny 75 23.8 47 8.3 37 37 S 33 54 29.53 1000 10 16.0934 0 0
11:35 am 11:35 Sunny 76 24.6 47 8.5 36 36 SSW 30 48 29.53 1000 10 16.0934 0 0
11:55 am 11:55 Sunny 77 25.2 47 8.5 35 35 S 30 48 29.53 1000 10 16.0934 0 0
12:15 pm 12:15 Sunny 78 25.3 47 8.4 34 34 S 26 43 29.53 1000 10 16.0934 0 0
12:35 pm 12:35 Sunny 79 26.1 47 8.5 33 33 S 32 52 29.53 1000 10 16.0934 0 0
12:55 pm 12:55 Sunny 78 25.6 47 8.3 33 33 S 29 46 29.53 1000 10 16.0934 0 0
1:15 pm 13:15 Sunny 78 25.8 47 8.3 33 33 S 28 44 29.53 1000 10 16.0934 0 0
1:35 pm 13:35 Sunny 81 27.1 48 9.1 32 32 S 20 31 29.5 999 10 16.0934 0 0
1:55 pm 13:55 Sunny 81 27.4 48 8.8 31 31 S 24 39 29.47 998 10 16.0934 0 0
2:15 pm 14:15 Sunny 82 27.7 48 9 31 31 S 26 43 29.47 998 10 16.0934 0 0
2:35 pm 14:35 Sunny 82 27.7 48 9 31 31 S 26 43 29.47 998 10 16.0934 0 0
2:55 pm 14:55 Sunny 83 28.6 48 8.7 29 29 S 24 39 29.47 998 10 16.0934 0 0
3:15 pm 15:15 Sunny 84 28.7 48 9.1 29 29 S 25 41 29.44 997 10 16.0934 0 0
3:35 pm 15:35 Sunny 86 29.9 48 9.1 27 27 S 26 43 29.44 997 10 16.0934 0 0
3:55 pm 15:55 Sunny 85 29.5 48 8.7 27 27 S 25 41 29.44 997 10 16.0934 0 0
4:15 pm 16:15 Sunny 85 29.5 47 8.5 27 27 S 28 44 29.44 997 10 16.0934 0 0
4:35 pm 16:35 Sunny 86 30 48 8.8 27 27 S 24 39 29.44 997 10 16.0934 0 0
4:55 pm 16:55 Partly Cloudy 85 29.3 49 9.4 29 29 SSW 30 48 29.44 997 10 16.0934 0 0
5:15 pm 17:15 Mostly Cloudy 87 30.3 48 8.9 26 26 S 30 48 29.38 995 10 16.0934 0 0
5:35 pm 17:35 Mostly Cloudy 84 29 47 8.2 27 27 SSW 31 50 29.41 996 10 16.0934 0 0
5:55 pm 17:55 Partly Cloudy 86 29.8 48 8.7 27 27 S 23 37 29.41 996 10 16.0934 0 0
6:15 pm 18:15 Partly Cloudy 83 28.1 47 8.5 29 29 S 31 50 29.41 996 10 16.0934 0 0
6:35 pm 18:35 Partly Cloudy 83 28.1 48 8.8 30 30 S 30 48 29.41 996 10 16.0934 0 0
7:15 pm 19:15 Partly Cloudy 80 26.7 52 11.2 38 38 S 29 46 29.41 996 10 16.0934 0 0
7:35 pm 19:35 Sunny 79 26.2 52 11.2 39 39 S 23 37 29.38 995 10 16.0934 0 0
7:55 pm 19:55 Sunny 78 25.7 52 11.2 40 40 S 28 44 29.41 996 10 16.0934 0 0
8:15 pm 20:15 Sunny 78 25.3 53 11.5 42 42 S 26 43 29.44 997 10 16.0934 0 0
8:35 pm 20:35 Clear 77 24.8 53 11.8 44 44 S 29 46 29.44 997 10 16.0934 0 0
8:55 pm 20:55 Clear 76 24.5 54 12.1 46 46 S 26 43 29.44 997 10 16.0934 0 0
9:15 pm 21:15 Clear 75 24 54 12.4 48 48 S 29 46 29.44 997 10 16.0934 0 0
9:35 pm 21:35 Clear 75 23.7 55 12.5 50 50 S 28 44 29.44 997 10 16.0934 0 0
9:55 pm 21:55 Clear 74 23.2 55 12.5 51 51 S 25 41 29.47 998 10 16.0934 0 0
10:15 pm 22:15 Clear 73 22.7 55 12.6 53 53 S 21 33 29.5 999 10 16.0934 0 0
10:35 pm 22:35 Clear 72 22.2 55 12.8 55 55 S 18 30 29.53 1000 10 16.0934 0 0
10:55 pm 22:55 Clear 72 22.1 55 12.8 56 56 S 21 33 29.53 1000 10 16.0934 0 0
11:15 pm 23:15 Clear 71 21.8 55 13 57 57 S 16 26 29.53 1000 10 16.0934 0 0
11:35 pm 23:35 Clear 71 21.6 55 13 58 58 S 12 19 29.53 1000 10 16.0934 0 0
11:55 pm 23:55 Clear 70 21.1 56 13.1 60 60 SW 8 13 29.56 1001 10 16.0934 0 0

Powered by AerisWeather